Regional Weather Roundup
Issued by NWS Bismarck, ND

Home | Current Version | Previous Version | Text Only | Print | Product List | Glossary On
Versions: 1 2 3 4 5 6 7 8 9 10 11 12 13 14 15 16 17 18 19 20 21 22 23 24 25 26 27 28 29 30 31 32 33 34 35 36 37 38 39 40 41 42 43 44 45 46 47 48 49 50
000
ASUS43 KBIS 240310
RWRBIS

NWR BROADCAST TEXT
NATIONAL WEATHER SERVICE BISMARCK ND
1000 PM CDT THU MAR 23 2017

NOTE: "FAIR" INDICATES FEW OR NO CLOUDS BELOW 12,000 FEET WITH NO
SIGNIFICANT WEATHER AND/OR OBSTRUCTIONS TO VISIBILITY.


CITY           SKY/WX    TMP DP  RH WIND       PRES   REMARKS
WILLISTON      CLOUDY    42  36  79 N8        29.90R
MINOT          FAIR      31  28  89 NW6       29.90R
MINOT AFB      FAIR      30  28  93 NW5       29.90R
BISMARCK       MOCLDY    40  37  89 NW8       29.89R
DICKINSON      MOCLDY    42  38  85 S12       29.88R
GARRISON         N/A     34  31  88 N5        29.90R
HETTINGER ARPT MOCLDY    38  37  97 NW6       29.93R
JAMESTOWN      CLOUDY    34  34 100 N7        29.85R FOG
HAZEN          FAIR      32  30  93 S5        29.92R
MANDAN         CLOUDY    39  37  93 NW9       29.89R
RUGBY            N/A     28  28 100 W6        29.89R
STANLEY        CLOUDY    37  37 100 NE3       29.92R
TIOGA          MOCLDY    36  36 100 NE6       29.91R
WATFORD CITY   MOCLDY    43  37  81 NE5       29.88R
$$

CITY           SKY/WX    TMP DP  RH WIND       PRES   REMARKS
GRAND FORKS    CLOUDY    35  35 100 SW3       29.86S
GRAND FORKS AF FAIR      34  34 100 N5        29.86S
DEVILS LAKE    FAIR      32  31  96 W6        29.89R
FARGO          LGT RAIN  36  34  92 NE3       29.85R FOG
GRAFTON        FAIR      34  34 100 W3        29.89R
GWINNER        CLOUDY    34  34 100 MISG      29.83R FOG
LANGDON        FAIR      32  32 100 NW7       29.88R
ROLLA          FAIR      32  32 100 N12       29.90R
$$

CITY           SKY/WX    TMP DP  RH WIND       PRES   REMARKS
ABERDEEN       CLOUDY    37  34  89 N9        29.80R
MOBRIDGE       CLOUDY    42  36  79 N12       29.83R
BUFFALO          N/A     41  40  96 W9        29.87R
RAPID CITY     CLOUDY    43  39  86 N23G30    29.89R
GLASGOW        FAIR      49  29  46 N5        29.89R
SIDNEY         MOCLDY    46  38  73 N7        29.89R
WOLF POINT     FAIR      50  38  63 NE12      29.90R
GLENDIVE       FAIR      47  32  56 NW12      29.90R
MILES CITY     FAIR      51  35  54 NW5       29.90R
BAKER          FAIR      43  38  82 W10       29.91R
$$

CITY           SKY/WX    TMP DP  RH WIND       PRES   REMARKS
BILLINGS       MOCLDY    46  36  68 N8        29.95R
GREAT FALLS    FAIR      36  18  48 W8        29.96R
REGINA         PTCLDY    36  27  69 NE10      29.93R
ESTEVAN        PTCLDY    30  30 100 NW6       29.91R
$$




USA.gov is the U.S. government's official web portal to all federal, state and local government web resources and services.